Home > Time Zones > World Clock > Weather > Italy > Parma > Past weeks

Flag for Italy Weather past 2 weeks in Parma, Italy

Now
72 °F

Scattered clouds.


Feels Like: 74 °F
Forecast: 62 / 82 °F
Wind: 6 mph from North

Location: Parma

Current Time: Jul 26, 2014 at 8:13:09 PM

Latest Report: Jul 26, 2014 at 6:50 PM


Visibility: N/A

Pressure: 29.86 "Hg

Humidity: 73%

Dew point: 63 °F

Location of ParmaLocation

Historic Weather in Parma — Graph

°F

Parma temperature yesterday

Maximum temperature yesterday: 82 °F (at 3:50 PM)
Minimum temperature yesterday: 61 °F (at 6:00 AM)
Average temperature yesterday: 74 °F

Past Weeks' High & Low Weather Summary

 TemperatureHumidityPressure
High91 °F (Jul 17, 3:50 PM)100% (Jul 13, 6:00 AM)30.12 "Hg (Jul 13, 6:00 AM)
Low61 °F (Jul 15, 6:00 AM)35% (Jul 16, 5:50 PM)29.74 "Hg (Jul 11, 6:50 PM)
Average76 °F68%29.94 "Hg
* Reported Jul 11 6:50 PM — Jul 26 6:50 PM, Parma, Weather by CustomWeather, © 2014

Note: Actual official high and low records may vary slightly from our data, if they occured in-between our weather recording intervals... More about our weather records

Advertising

Parma weather history for previous 24 hours

 ConditionsComfort  
Time TempWeatherWind HumidityBarometerVisibility
6:50 PM
Jul 26
72 °FScattered clouds.6 mph73%29.86 "HgN/A
5:50 PM73 °FScattered clouds.6 mph74%29.86 "HgN/A
4:50 PM72 °FPartly sunny.8 mph78%29.86 "HgN/A
3:50 PM72 °FPartly sunny.9 mph78%29.86 "HgN/A
2:50 PM72 °FBroken clouds.8 mph78%29.86 "HgN/A
1:50 PM70 °FBroken clouds.7 mph83%29.89 "HgN/A
12:50 PM70 °FMostly cloudy.6 mph83%29.92 "HgN/A
11:50 AM70 °FMostly cloudy.7 mph83%29.89 "HgN/A
10:50 AM68 °FMostly cloudy.7 mph88%29.89 "Hg5 mi
9:50 AM66 °FBroken clouds.7 mph94%29.89 "Hg4 mi
8:50 AM66 °FLight rain. More clouds than sun.9 mph94%29.89 "Hg4 mi
7:50 AM66 °FThunderstorms. Fog.6 mph94%29.89 "Hg2 mi
6:50 AM66 °FThunderstorms. Fog.3 mph100%29.89 "Hg1 mi
6:00 AM66 °FRain. Fog.6 mph100%29.89 "Hg1 mi
11:50 PM
Jul 25
70 °FPassing clouds.3 mph88%29.92 "HgN/A
10:50 PM72 °FPassing clouds.No wind83%29.92 "HgN/A
9:50 PM73 °FScattered clouds.3 mph74%29.92 "HgN/A
8:50 PM73 °FScattered clouds.2 mph78%29.92 "Hg4 mi
Weather by CustomWeather, © 2014

See weather overviewHow to use our weather pages